| time (UTC) | temp F | wind direction | speed MPH | gust MPH | rain 1hr in | rain 24hr in | rain mn in | humidity % | barometer mb |
| 20260507210521 | 83 | 129 | 7.0 | 12.0 | 0.00 | 0.00 | 0.00 | 77 | 1015.2 |
| 20260507210035 | 83 | 113 | 5.0 | 12.0 | 0.00 | 0.00 | 0.00 | 78 | 1015.4 |
| 20260507205515 | 83 | 140 | 7.0 | 12.0 | 0.00 | 0.00 | 0.00 | 77 | 1015.3 |
| 20260507205014 | 83 | 88 | 6.0 | 11.0 | 0.00 | 0.00 | 0.00 | 76 | 1015.3 |
| 20260507204537 | 83 | 113 | 6.0 | 11.0 | 0.00 | 0.00 | 0.00 | 76 | 1015.3 |
| 20260507204014 | 83 | 132 | 6.0 | 11.0 | 0.00 | 0.00 | 0.00 | 76 | 1015.3 |
| 20260507203521 | 83 | 105 | 5.0 | 14.0 | 0.00 | 0.00 | 0.00 | 75 | 1015.3 |
| 20260507203035 | 84 | 110 | 6.0 | 14.0 | 0.00 | 0.00 | 0.00 | 75 | 1015.3 |
| 20260507202517 | 83 | 95 | 5.0 | 11.0 | 0.00 | 0.00 | 0.00 | 75 | 1015.4 |
| 20260507202014 | 83 | 88 | 7.0 | 12.0 | 0.00 | 0.00 | 0.00 | 75 | 1015.4 |
| 20260507201536 | 84 | 155 | 7.0 | 12.0 | 0.00 | 0.00 | 0.00 | 74 | 1015.4 |
| 20260507201019 | 84 | 138 | 8.0 | 12.0 | 0.00 | 0.00 | 0.00 | 73 | 1015.4 |
| 20260507200517 | 84 | 148 | 6.0 | 12.0 | 0.00 | 0.00 | 0.00 | 74 | 1015.4 |
| 20260507200032 | 84 | 114 | 7.0 | 12.0 | 0.00 | 0.00 | 0.00 | 73 | 1015.5 |
| 20260507195517 | 84 | 87 | 5.0 | 12.0 | 0.00 | 0.00 | 0.00 | 74 | 1015.4 |
| 20260507195015 | 84 | 125 | 6.0 | 12.0 | 0.00 | 0.00 | 0.00 | 74 | 1015.6 |
| 20260507194534 | 84 | 92 | 8.0 | 13.0 | 0.00 | 0.00 | 0.00 | 72 | 1015.6 |
| 20260507194017 | 84 | 116 | 6.0 | 13.0 | 0.00 | 0.00 | 0.00 | 74 | 1015.7 |
| 20260507193518 | 84 | 98 | 8.0 | 13.0 | 0.00 | 0.00 | 0.00 | 72 | 1015.7 |
| 20260507193032 | 85 | 120 | 6.0 | 13.0 | 0.00 | 0.00 | 0.00 | 72 | 1015.6 |
| 20260507192517 | 85 | 97 | 8.0 | 13.0 | 0.00 | 0.00 | 0.00 | 72 | 1015.7 |
| 20260507192015 | 85 | 76 | 7.0 | 13.0 | 0.00 | 0.00 | 0.00 | 72 | 1015.7 |
| 20260507191532 | 85 | 105 | 7.0 | 13.0 | 0.00 | 0.00 | 0.00 | 71 | 1015.8 |
| 20260507191014 | 85 | 80 | 7.0 | 14.0 | 0.00 | 0.00 | 0.00 | 71 | 1015.8 |
| 20260507190517 | 85 | 135 | 5.0 | 14.0 | 0.00 | 0.00 | 0.00 | 72 | 1015.8 |
| 20260507190033 | 85 | 106 | 8.0 | 14.0 | 0.00 | 0.00 | 0.00 | 72 | 1015.8 |
| 20260507185518 | 85 | 88 | 9.0 | 14.0 | 0.00 | 0.00 | 0.00 | 71 | 1015.8 |
| 20260507185017 | 85 | 103 | 8.0 | 14.0 | 0.00 | 0.00 | 0.00 | 70 | 1015.8 |
| 20260507184532 | 85 | 141 | 8.0 | 14.0 | 0.00 | 0.00 | 0.00 | 71 | 1015.8 |
| 20260507184015 | 85 | 126 | 7.0 | 14.0 | 0.00 | 0.00 | 0.00 | 72 | 1016.1 |
| 20260507183514 | 85 | 87 | 8.0 | 14.0 | 0.00 | 0.00 | 0.00 | 73 | 1015.9 |
| 20260507183041 | 85 | 90 | 9.0 | 16.0 | 0.00 | 0.00 | 0.00 | 72 | 1016.0 |
| 20260507182517 | 85 | 69 | 7.0 | 16.0 | 0.00 | 0.00 | 0.00 | 74 | 1015.9 |
| 20260507182021 | 85 | 116 | 9.0 | 14.0 | 0.00 | 0.00 | 0.00 | 73 | 1015.9 |
| 20260507181531 | 85 | 82 | 9.0 | 14.0 | 0.00 | 0.00 | 0.00 | 72 | 1016.0 |
| 20260507181015 | 85 | 115 | 6.0 | 14.0 | 0.00 | 0.00 | 0.00 | 72 | 1016.0 |
| 20260507180515 | 86 | 111 | 7.0 | 14.0 | 0.00 | 0.00 | 0.00 | 72 | 1016.0 |
| 20260507180033 | 86 | 107 | 8.0 | 15.0 | 0.00 | 0.00 | 0.00 | 72 | 1016.2 |
| 20260507175514 | 86 | 153 | 7.0 | 15.0 | 0.00 | 0.00 | 0.00 | 71 | 1016.3 |
| 20260507175017 | 85 | 119 | 6.0 | 13.0 | 0.00 | 0.00 | 0.00 | 73 | 1016.4 |
| 20260507174534 | 85 | 101 | 6.0 | 13.0 | 0.00 | 0.00 | 0.00 | 72 | 1016.5 |
| 20260507174015 | 85 | 90 | 6.0 | 13.0 | 0.00 | 0.00 | 0.00 | 73 | 1016.4 |
| 20260507173515 | 85 | 106 | 6.0 | 14.0 | 0.00 | 0.00 | 0.00 | 74 | 1016.4 |
| 20260507173040 | 85 | 142 | 8.0 | 14.0 | 0.00 | 0.00 | 0.00 | 71 | 1016.6 |
| 20260507172515 | 85 | 109 | 8.0 | 14.0 | 0.00 | 0.00 | 0.00 | 70 | 1016.6 |
| 20260507172017 | 85 | 168 | 7.0 | 12.0 | 0.00 | 0.00 | 0.00 | 71 | 1016.5 |
| 20260507171530 | 85 | 125 | 5.0 | 14.0 | 0.00 | 0.00 | 0.00 | 72 | 1016.5 |
| 20260507171015 | 85 | 115 | 7.0 | 16.0 | 0.00 | 0.00 | 0.00 | 72 | 1016.7 |
| 20260507170515 | 85 | 128 | 8.0 | 16.0 | 0.00 | 0.00 | 0.00 | 73 | 1016.7 |
| 20260507170032 | 85 | 126 | 7.0 | 13.0 | 0.00 | 0.00 | 0.00 | 72 | 1016.9 |
| 20260507165514 | 85 | 123 | 7.0 | 13.0 | 0.00 | 0.00 | 0.00 | 71 | 1017.0 |
| 20260507165014 | 85 | 128 | 7.0 | 13.0 | 0.00 | 0.00 | 0.00 | 72 | 1017.0 |
| 20260507164534 | 85 | 130 | 7.0 | 11.0 | 0.00 | 0.00 | 0.00 | 72 | 1017.0 |
| 20260507164016 | 85 | 138 | 5.0 | 11.0 | 0.00 | 0.00 | 0.00 | 73 | 1017.1 |
| 20260507163518 | 85 | 82 | 6.0 | 11.0 | 0.00 | 0.00 | 0.00 | 72 | 1017.1 |
| 20260507163033 | 85 | 150 | 6.0 | 11.0 | 0.00 | 0.00 | 0.00 | 73 | 1017.2 |
| 20260507162514 | 85 | 115 | 7.0 | 11.0 | 0.00 | 0.00 | 0.00 | 71 | 1017.3 |
| 20260507162017 | 85 | 123 | 6.0 | 12.0 | 0.00 | 0.00 | 0.00 | 73 | 1017.3 |
| 20260507161530 | 85 | 115 | 5.0 | 12.0 | 0.00 | 0.00 | 0.00 | 73 | 1017.4 |
| 20260507161018 | 85 | 115 | 6.0 | 13.0 | 0.00 | 0.00 | 0.00 | 74 | 1017.4 |
| 20260507160517 | 85 | 126 | 8.0 | 13.0 | 0.00 | 0.00 | 0.00 | 74 | 1017.4 |
| 20260507160036 | 85 | 129 | 5.0 | 14.0 | 0.00 | 0.00 | 0.00 | 73 | 1017.4 |
| 20260507155516 | 85 | 97 | 5.0 | 14.0 | 0.00 | 0.00 | 0.00 | 74 | 1017.5 |
| 20260507155019 | 85 | 113 | 6.0 | 13.0 | 0.00 | 0.00 | 0.00 | 72 | 1017.5 |
| 20260507154535 | 85 | 128 | 7.0 | 13.0 | 0.00 | 0.00 | 0.00 | 73 | 1017.6 |
| 20260507154017 | 85 | 116 | 8.0 | 13.0 | 0.00 | 0.00 | 0.00 | 74 | 1017.7 |
| 20260507153518 | 85 | 100 | 8.0 | 13.0 | 0.00 | 0.00 | 0.00 | 72 | 1017.7 |
| 20260507153032 | 85 | 134 | 6.0 | 14.0 | 0.00 | 0.00 | 0.00 | 73 | 1017.7 |
| 20260507152514 | 85 | 126 | 9.0 | 14.0 | 0.00 | 0.00 | 0.00 | 72 | 1017.8 |
| 20260507152015 | 85 | 163 | 6.0 | 13.0 | 0.00 | 0.00 | 0.00 | 73 | 1017.8 |
| 20260507151531 | 85 | 107 | 7.0 | 13.0 | 0.00 | 0.00 | 0.00 | 72 | 1017.7 |
| 20260507151018 | 85 | 112 | 7.0 | 13.0 | 0.00 | 0.00 | 0.00 | 73 | 1017.7 |
| 20260507150521 | 85 | 153 | 8.0 | 13.0 | 0.00 | 0.00 | 0.00 | 73 | 1017.7 |
| 20260507150032 | 85 | 110 | 6.0 | 13.0 | 0.00 | 0.00 | 0.00 | 75 | 1017.8 |
| 20260507145519 | 85 | 123 | 6.0 | 12.0 | 0.00 | 0.00 | 0.00 | 75 | 1017.7 |
| 20260507145014 | 84 | 125 | 8.0 | 14.0 | 0.00 | 0.00 | 0.00 | 75 | 1017.8 |
| 20260507144549 | 84 | 124 | 7.0 | 15.0 | 0.00 | 0.00 | 0.00 | 75 | 1017.7 |
| 20260507144015 | 84 | 171 | 7.0 | 15.0 | 0.00 | 0.00 | 0.00 | 75 | 1017.7 |
| 20260507143514 | 84 | 100 | 7.0 | 14.0 | 0.00 | 0.00 | 0.00 | 76 | 1017.8 |
| 20260507143034 | 84 | 134 | 6.0 | 14.0 | 0.00 | 0.00 | 0.00 | 75 | 1017.8 |
| 20260507142514 | 84 | 80 | 7.0 | 12.0 | 0.00 | 0.00 | 0.00 | 76 | 1017.9 |
| 20260507142022 | 84 | 108 | 7.0 | 12.0 | 0.00 | 0.00 | 0.00 | 75 | 1017.9 |
| 20260507141535 | 84 | 129 | 7.0 | 12.0 | 0.00 | 0.00 | 0.00 | 76 | 1017.9 |
| 20260507141014 | 84 | 165 | 7.0 | 12.0 | 0.00 | 0.00 | 0.00 | 76 | 1018.0 |
| 20260507140514 | 83 | 120 | 6.0 | 12.0 | 0.00 | 0.00 | 0.00 | 77 | 1017.9 |
| 20260507140034 | 83 | 125 | 6.0 | 12.0 | 0.00 | 0.00 | 0.00 | 77 | 1018.0 |
| 20260507135514 | 83 | 106 | 8.0 | 12.0 | 0.00 | 0.00 | 0.00 | 76 | 1018.0 |
| 20260507135018 | 83 | 86 | 9.0 | 15.0 | 0.00 | 0.00 | 0.00 | 75 | 1018.0 |
| 20260507134537 | 83 | 92 | 7.0 | 15.0 | 0.00 | 0.00 | 0.00 | 75 | 1017.9 |
| 20260507134018 | 84 | 112 | 7.0 | 15.0 | 0.00 | 0.00 | 0.00 | 75 | 1017.8 |
| 20260507133518 | 84 | 105 | 8.0 | 12.0 | 0.00 | 0.00 | 0.00 | 77 | 1017.7 |
| 20260507133036 | 83 | 84 | 8.0 | 12.0 | 0.00 | 0.00 | 0.00 | 77 | 1017.8 |
| 20260507132518 | 83 | 155 | 5.0 | 12.0 | 0.00 | 0.00 | 0.00 | 77 | 1017.6 |
| 20260507132016 | 82 | 126 | 5.0 | 12.0 | 0.00 | 0.00 | 0.00 | 79 | 1017.6 |
| 20260507131534 | 82 | 95 | 8.0 | 14.0 | 0.00 | 0.00 | 0.00 | 79 | 1017.6 |
| 20260507131018 | 82 | 98 | 9.0 | 14.0 | 0.00 | 0.00 | 0.00 | 81 | 1017.6 |
| 20260507130518 | 81 | 129 | 8.0 | 12.0 | 0.00 | 0.00 | 0.00 | 82 | 1017.7 |
| 20260507130032 | 81 | 102 | 5.0 | 12.0 | 0.00 | 0.00 | 0.00 | 83 | 1017.7 |
| 20260507125518 | 81 | 111 | 6.0 | 12.0 | 0.00 | 0.00 | 0.00 | 82 | 1017.7 |
| 20260507125017 | 81 | 87 | 5.0 | 12.0 | 0.00 | 0.00 | 0.00 | 83 | 1017.7 |
| 20260507124531 | 82 | 102 | 8.0 | 12.0 | 0.00 | 0.00 | 0.00 | 81 | 1017.6 |
| 20260507124024 | 82 | 89 | 6.0 | 12.0 | 0.00 | 0.00 | 0.00 | 78 | 1017.6 |
| 20260507123518 | 83 | 115 | 5.0 | 12.0 | 0.00 | 0.00 | 0.00 | 77 | 1017.4 |
| 20260507123037 | 83 | 88 | 7.0 | 12.0 | 0.00 | 0.00 | 0.00 | 77 | 1017.3 |
| 20260507122518 | 83 | 112 | 7.0 | 14.0 | 0.00 | 0.00 | 0.00 | 77 | 1017.3 |
| 20260507122018 | 83 | 99 | 7.0 | 14.0 | 0.00 | 0.00 | 0.00 | 78 | 1017.2 |
| 20260507121535 | 82 | 68 | 7.0 | 11.0 | 0.00 | 0.00 | 0.00 | 79 | 1017.3 |
| 20260507121018 | 82 | 119 | 7.0 | 11.0 | 0.00 | 0.00 | 0.00 | 80 | 1017.2 |
| 20260507120517 | 81 | 97 | 6.0 | 11.0 | 0.00 | 0.00 | 0.00 | 81 | 1017.2 |
| 20260507120034 | 81 | 96 | 6.0 | 11.0 | 0.00 | 0.00 | 0.00 | 82 | 1017.2 |
| 20260507115519 | 81 | 86 | 6.0 | 11.0 | 0.00 | 0.00 | 0.00 | 82 | 1017.1 |
| 20260507115019 | 81 | 138 | 6.0 | 12.0 | 0.00 | 0.00 | 0.00 | 82 | 1017.0 |
| 20260507114538 | 80 | 107 | 8.0 | 12.0 | 0.00 | 0.00 | 0.00 | 82 | 1017.1 |
| 20260507114017 | 80 | 89 | 7.0 | 13.0 | 0.00 | 0.00 | 0.00 | 82 | 1016.9 |
| 20260507113518 | 80 | 109 | 7.0 | 13.0 | 0.00 | 0.00 | 0.00 | 82 | 1016.9 |
| 20260507113038 | 80 | 76 | 5.0 | 11.0 | 0.00 | 0.00 | 0.00 | 83 | 1016.8 |
| 20260507112520 | 80 | 105 | 7.0 | 11.0 | 0.00 | 0.00 | 0.00 | 83 | 1016.7 |
| 20260507112017 | 81 | 89 | 6.0 | 12.0 | 0.00 | 0.00 | 0.00 | 82 | 1016.6 |
| 20260507111542 | 81 | 105 | 7.0 | 12.0 | 0.00 | 0.00 | 0.00 | 81 | 1016.7 |
| 20260507111017 | 81 | 73 | 5.0 | 10.0 | 0.00 | 0.00 | 0.00 | 81 | 1016.6 |
| 20260507110518 | 81 | 88 | 6.0 | 10.0 | 0.00 | 0.00 | 0.00 | 81 | 1016.6 |
| 20260507110037 | 81 | 107 | 6.0 | 13.0 | 0.00 | 0.00 | 0.00 | 81 | 1016.7 |
| 20260507105517 | 81 | 92 | 7.0 | 13.0 | 0.00 | 0.00 | 0.00 | 81 | 1016.7 |
| 20260507105017 | 81 | 44 | 5.0 | 10.0 | 0.00 | 0.00 | 0.00 | 81 | 1016.7 |
| 20260507103518 | 80 | 97 | 3.0 | 11.0 | 0.00 | 0.00 | 0.00 | 82 | 1016.6 |
| 20260507103037 | 80 | 84 | 4.0 | 11.0 | 0.00 | 0.00 | 0.00 | 82 | 1016.5 |
| 20260507102517 | 80 | 90 | 6.0 | 10.0 | 0.00 | 0.00 | 0.00 | 82 | 1016.7 |
| 20260507102016 | 80 | 97 | 6.0 | 10.0 | 0.00 | 0.00 | 0.00 | 83 | 1016.4 |
| 20260507101543 | 80 | 117 | 6.0 | 12.0 | 0.00 | 0.00 | 0.00 | 83 | 1016.6 |
| 20260507101016 | 80 | 91 | 8.0 | 12.0 | 0.00 | 0.00 | 0.00 | 83 | 1016.5 |
| 20260507100516 | 79 | 119 | 6.0 | 11.0 | 0.00 | 0.00 | 0.00 | 83 | 1016.6 |
| 20260507100035 | 79 | 95 | 4.0 | 11.0 | 0.00 | 0.00 | 0.00 | 84 | 1016.5 |
| 20260507095518 | 79 | 113 | 4.0 | 11.0 | 0.00 | 0.07 | 0.00 | 84 | 1016.6 |
| 20260507095016 | 79 | 114 | 6.0 | 10.0 | 0.00 | 0.07 | 0.00 | 84 | 1016.6 |
| 20260507094541 | 79 | 94 | 6.0 | 10.0 | 0.00 | 0.07 | 0.00 | 84 | 1016.7 |
| 20260507094016 | 79 | 114 | 4.0 | 7.0 | 0.00 | 0.07 | 0.00 | 84 | 1016.6 |
| 20260507093517 | 79 | 93 | 3.0 | 7.0 | 0.00 | 0.07 | 0.00 | 84 | 1016.6 |
| 20260507093036 | 79 | 126 | 2.0 | 9.0 | 0.00 | 0.07 | 0.00 | 85 | 1016.5 |
| 20260507092518 | 79 | 88 | 3.0 | 9.0 | 0.00 | 0.07 | 0.00 | 84 | 1016.6 |
| 20260507092017 | 79 | 96 | 4.0 | 7.0 | 0.00 | 0.07 | 0.00 | 84 | 1016.7 |
| 20260507091532 | 79 | 114 | 2.0 | 7.0 | 0.00 | 0.07 | 0.00 | 84 | 1016.8 |
| 20260507091023 | 79 | 92 | 2.0 | 7.0 | 0.00 | 0.07 | 0.00 | 84 | 1016.5 |
| 20260507090521 | 79 | 103 | 4.0 | 8.0 | 0.00 | 0.07 | 0.00 | 84 | 1016.6 |
| 20260507090035 | 79 | 89 | 3.0 | 8.0 | 0.00 | 0.07 | 0.00 | 84 | 1016.5 |
| 20260507085517 | 79 | 80 | 4.0 | 8.0 | 0.00 | 0.07 | 0.00 | 84 | 1016.5 |
| 20260507085017 | 79 | 81 | 2.0 | 7.0 | 0.00 | 0.07 | 0.00 | 84 | 1016.3 |
| 20260507084537 | 79 | 100 | 4.0 | 9.0 | 0.00 | 0.07 | 0.00 | 84 | 1016.3 |
| 20260507084018 | 79 | 104 | 3.0 | 9.0 | 0.00 | 0.07 | 0.00 | 84 | 1016.4 |
| 20260507083519 | 79 | 86 | 5.0 | 9.0 | 0.00 | 0.07 | 0.00 | 84 | 1016.3 |
| 20260507083035 | 79 | 86 | 4.0 | 9.0 | 0.00 | 0.07 | 0.00 | 84 | 1016.3 |
| 20260507082517 | 80 | 89 | 5.0 | 9.0 | 0.00 | 0.07 | 0.00 | 84 | 1016.3 |
| 20260507082018 | 79 | 107 | 2.0 | 8.0 | 0.00 | 0.07 | 0.00 | 83 | 1016.3 |
| 20260507081532 | 79 | 109 | 4.0 | 8.0 | 0.00 | 0.07 | 0.00 | 83 | 1016.3 |
| 20260507081018 | 79 | 0 | 2.0 | 6.0 | 0.00 | 0.07 | 0.00 | 83 | 1016.2 |
| 20260507080518 | 80 | 90 | 1.0 | 6.0 | 0.00 | 0.07 | 0.00 | 83 | 1016.2 |
| 20260507080037 | 80 | 86 | 2.0 | 5.0 | 0.00 | 0.07 | 0.00 | 83 | 1016.2 |
| 20260507075517 | 80 | 82 | 2.0 | 6.0 | 0.00 | 0.07 | 0.00 | 83 | 1016.3 |
| 20260507075020 | 80 | 95 | 2.0 | 7.0 | 0.00 | 0.07 | 0.00 | 82 | 1016.3 |
| 20260507074534 | 80 | 84 | 2.0 | 8.0 | 0.00 | 0.07 | 0.00 | 82 | 1016.1 |
| 20260507074017 | 80 | 74 | 3.0 | 8.0 | 0.00 | 0.07 | 0.00 | 82 | 1016.3 |
| 20260507073517 | 80 | 79 | 2.0 | 7.0 | 0.00 | 0.07 | 0.00 | 83 | 1016.4 |
| 20260507073035 | 80 | 84 | 3.0 | 8.0 | 0.00 | 0.07 | 0.00 | 82 | 1016.4 |
| 20260507072517 | 80 | 109 | 4.0 | 8.0 | 0.00 | 0.07 | 0.00 | 82 | 1016.6 |
| 20260507072016 | 80 | 81 | 4.0 | 8.0 | 0.00 | 0.07 | 0.00 | 82 | 1016.7 |
| 20260507071535 | 80 | 92 | 3.0 | 8.0 | 0.00 | 0.07 | 0.00 | 82 | 1016.8 |
| 20260507071018 | 80 | 86 | 2.0 | 6.0 | 0.00 | 0.07 | 0.00 | 82 | 1016.8 |
| 20260507070518 | 80 | 84 | 1.0 | 8.0 | 0.00 | 0.07 | 0.00 | 82 | 1016.8 |
| 20260507070035 | 80 | 77 | 3.0 | 10.0 | 0.00 | 0.07 | 0.00 | 82 | 1016.7 |
| 20260507065517 | 80 | 87 | 4.0 | 10.0 | 0.00 | 0.07 | 0.00 | 82 | 1016.7 |
| 20260507065017 | 80 | 98 | 3.0 | 9.0 | 0.00 | 0.07 | 0.00 | 82 | 1016.7 |
| 20260507064531 | 80 | 83 | 3.0 | 9.0 | 0.00 | 0.07 | 0.00 | 82 | 1016.8 |
| 20260507064017 | 80 | 95 | 3.0 | 8.0 | 0.00 | 0.07 | 0.00 | 82 | 1017.0 |
| 20260507063517 | 80 | 88 | 3.0 | 8.0 | 0.00 | 0.07 | 0.00 | 82 | 1017.0 |
| 20260507063035 | 80 | 109 | 4.0 | 9.0 | 0.00 | 0.07 | 0.00 | 83 | 1017.1 |
| 20260507062517 | 80 | 107 | 4.0 | 9.0 | 0.00 | 0.07 | 0.00 | 82 | 1017.1 |
| 20260507062017 | 80 | 92 | 2.0 | 10.0 | 0.00 | 0.07 | 0.00 | 82 | 1017.1 |
| 20260507061534 | 80 | 105 | 5.0 | 10.0 | 0.00 | 0.07 | 0.00 | 82 | 1017.2 |
| 20260507061059 | 80 | 131 | 3.0 | 10.0 | 0.00 | 0.07 | 0.00 | 82 | 1017.3 |
| 20260507060517 | 80 | 101 | 4.0 | 10.0 | 0.00 | 0.07 | 0.00 | 82 | 1017.3 |
| 20260507060048 | 80 | 85 | 4.0 | 10.0 | 0.00 | 0.07 | 0.00 | 82 | 1017.4 |
| 20260507055520 | 80 | 111 | 6.0 | 10.0 | 0.00 | 0.07 | 0.00 | 82 | 1017.4 |
| 20260507055017 | 80 | 103 | 5.0 | 11.0 | 0.00 | 0.07 | 0.00 | 82 | 1017.5 |
| 20260507054544 | 80 | 101 | 5.0 | 11.0 | 0.00 | 0.07 | 0.00 | 81 | 1017.4 |
| 20260507054018 | 80 | 89 | 5.0 | 11.0 | 0.00 | 0.07 | 0.00 | 81 | 1017.5 |
| 20260507053519 | 80 | 96 | 4.0 | 11.0 | 0.00 | 0.07 | 0.00 | 82 | 1017.6 |
| 20260507053036 | 80 | 70 | 7.0 | 11.0 | 0.00 | 0.07 | 0.00 | 82 | 1017.7 |
| 20260507052520 | 80 | 94 | 5.0 | 12.0 | 0.00 | 0.07 | 0.00 | 81 | 1017.8 |
| 20260507052018 | 81 | 82 | 6.0 | 12.0 | 0.00 | 0.07 | 0.00 | 82 | 1017.9 |
| 20260507051532 | 81 | 92 | 5.0 | 10.0 | 0.00 | 0.07 | 0.00 | 82 | 1018.0 |
| 20260507051017 | 81 | 100 | 6.0 | 10.0 | 0.00 | 0.07 | 0.00 | 82 | 1018.1 |
| 20260507050517 | 81 | 84 | 4.0 | 10.0 | 0.00 | 0.07 | 0.00 | 81 | 1018.1 |
| 20260507050038 | 81 | 82 | 5.0 | 10.0 | 0.00 | 0.07 | 0.00 | 81 | 1018.1 |
| 20260507045517 | 81 | 88 | 4.0 | 10.0 | 0.00 | 0.07 | 0.00 | 81 | 1018.3 |
| 20260507045017 | 81 | 86 | 3.0 | 10.0 | 0.00 | 0.07 | 0.00 | 81 | 1018.4 |
| 20260507044548 | 81 | 80 | 6.0 | 10.0 | 0.00 | 0.07 | 0.00 | 81 | 1018.5 |
| 20260507044017 | 81 | 65 | 3.0 | 10.0 | 0.00 | 0.07 | 0.00 | 81 | 1018.6 |
| 20260507043518 | 81 | 119 | 4.0 | 10.0 | 0.00 | 0.07 | 0.00 | 81 | 1018.6 |
| 20260507043032 | 81 | 100 | 5.0 | 11.0 | 0.00 | 0.07 | 0.00 | 82 | 1018.6 |
| 20260507042517 | 81 | 74 | 5.0 | 11.0 | 0.00 | 0.07 | 0.00 | 81 | 1018.6 |
| 20260507042018 | 81 | 102 | 5.0 | 10.0 | 0.00 | 0.07 | 0.00 | 82 | 1018.7 |
| 20260507041532 | 81 | 103 | 4.0 | 10.0 | 0.00 | 0.07 | 0.00 | 82 | 1018.7 |
| 20260507041018 | 81 | 123 | 5.0 | 9.0 | 0.00 | 0.07 | 0.00 | 81 | 1018.7 |
| 20260507040517 | 81 | 107 | 4.0 | 8.0 | 0.00 | 0.07 | 0.00 | 82 | 1018.7 |
| 20260507040039 | 81 | 94 | 5.0 | 9.0 | 0.00 | 0.07 | 0.00 | 82 | 1018.8 |
| 20260507035517 | 81 | 86 | 4.0 | 9.0 | 0.00 | 0.07 | 0.07 | 82 | 1018.9 |
| 20260507035019 | 81 | 105 | 5.0 | 12.0 | 0.00 | 0.07 | 0.07 | 82 | 1018.9 |
| 20260507034538 | 81 | 87 | 4.0 | 12.0 | 0.00 | 0.07 | 0.07 | 82 | 1018.8 |
| 20260507034017 | 81 | 93 | 5.0 | 11.0 | 0.00 | 0.07 | 0.07 | 82 | 1018.9 |
| 20260507033517 | 81 | 128 | 4.0 | 11.0 | 0.00 | 0.07 | 0.07 | 82 | 1018.9 |
| 20260507033035 | 80 | 85 | 6.0 | 13.0 | 0.00 | 0.07 | 0.07 | 83 | 1018.8 |
| 20260507032518 | 80 | 89 | 6.0 | 13.0 | 0.00 | 0.07 | 0.07 | 83 | 1018.9 |
| 20260507032017 | 79 | 112 | 3.0 | 5.0 | 0.00 | 0.07 | 0.07 | 83 | 1018.9 |
| 20260507031534 | 79 | 0 | 1.0 | 7.0 | 0.00 | 0.07 | 0.07 | 82 | 1019.0 |
| 20260507031018 | 79 | 186 | 2.0 | 7.0 | 0.00 | 0.07 | 0.07 | 82 | 1019.0 |
| 20260507030520 | 79 | 142 | 2.0 | 4.0 | 0.00 | 0.07 | 0.07 | 82 | 1019.0 |
| 20260507030032 | 79 | 165 | 1.0 | 4.0 | 0.00 | 0.07 | 0.07 | 83 | 1019.0 |
| 20260507025517 | 79 | 165 | 1.0 | 6.0 | 0.00 | 0.07 | 0.07 | 83 | 1018.9 |
| 20260507025017 | 79 | 164 | 2.0 | 6.0 | 0.00 | 0.07 | 0.07 | 83 | 1019.0 |
| 20260507024539 | 79 | 170 | 1.0 | 12.0 | 0.00 | 0.07 | 0.07 | 85 | 1018.9 |
| 20260507024018 | 79 | 144 | 3.0 | 12.0 | 0.00 | 0.07 | 0.07 | 85 | 1018.9 |
| 20260507023519 | 79 | 130 | 5.0 | 12.0 | 0.00 | 0.07 | 0.07 | 85 | 1018.9 |
| 20260507023037 | 79 | 125 | 3.0 | 10.0 | 0.00 | 0.07 | 0.07 | 84 | 1019.1 |
| 20260507022520 | 80 | 146 | 5.0 | 10.0 | 0.00 | 0.07 | 0.07 | 83 | 1018.9 |
| 20260507022017 | 80 | 129 | 5.0 | 14.0 | 0.00 | 0.07 | 0.07 | 83 | 1018.9 |
| 20260507021536 | 80 | 150 | 5.0 | 14.0 | 0.00 | 0.07 | 0.07 | 82 | 1018.8 |
| 20260507021020 | 81 | 117 | 8.0 | 14.0 | 0.00 | 0.07 | 0.07 | 81 | 1018.8 |
| 20260507020518 | 81 | 107 | 3.0 | 9.0 | 0.00 | 0.07 | 0.07 | 83 | 1018.9 |
| 20260507020043 | 81 | 107 | 4.0 | 8.0 | 0.00 | 0.07 | 0.07 | 82 | 1018.9 |
| 20260507015522 | 81 | 89 | 5.0 | 8.0 | 0.00 | 0.07 | 0.07 | 82 | 1018.9 |
| 20260507015018 | 81 | 101 | 3.0 | 7.0 | 0.00 | 0.07 | 0.07 | 82 | 1018.8 |
| 20260507014535 | 81 | 104 | 4.0 | 8.0 | 0.00 | 0.07 | 0.07 | 82 | 1018.6 |
| 20260507014021 | 81 | 101 | 3.0 | 8.0 | 0.00 | 0.07 | 0.07 | 82 | 1018.6 |
| 20260507013517 | 81 | 98 | 4.0 | 8.0 | 0.00 | 0.07 | 0.07 | 82 | 1018.5 |
| 20260507013032 | 81 | 80 | 4.0 | 9.0 | 0.00 | 0.07 | 0.07 | 82 | 1018.5 |
| 20260507012515 | 81 | 92 | 4.0 | 9.0 | 0.00 | 0.07 | 0.07 | 81 | 1018.4 |
| 20260507012015 | 81 | 89 | 4.0 | 9.0 | 0.00 | 0.07 | 0.07 | 81 | 1018.3 |
| 20260507011541 | 81 | 90 | 3.0 | 6.0 | 0.00 | 0.07 | 0.07 | 82 | 1018.3 |
| 20260507011015 | 81 | 103 | 2.0 | 6.0 | 0.00 | 0.07 | 0.07 | 81 | 1018.4 |
| 20260507010515 | 81 | 125 | 3.0 | 7.0 | 0.00 | 0.07 | 0.07 | 81 | 1018.3 |
| 20260507010040 | 81 | 128 | 3.0 | 8.0 | 0.00 | 0.07 | 0.07 | 81 | 1018.2 |
| 20260507005515 | 81 | 130 | 3.0 | 8.0 | 0.00 | 0.07 | 0.07 | 80 | 1018.2 |
| 20260507005018 | 81 | 136 | 3.0 | 6.0 | 0.00 | 0.07 | 0.07 | 82 | 1018.2 |
| 20260507004537 | 81 | 110 | 2.0 | 6.0 | 0.00 | 0.07 | 0.07 | 82 | 1018.2 |
| 20260507004016 | 81 | 130 | 3.0 | 6.0 | 0.00 | 0.07 | 0.07 | 82 | 1018.1 |
| 20260507003516 | 81 | 134 | 2.0 | 4.0 | 0.00 | 0.07 | 0.07 | 81 | 1018.0 |
| 20260507003034 | 81 | 148 | 2.0 | 4.0 | 0.00 | 0.07 | 0.07 | 80 | 1017.9 |
| 20260507002515 | 81 | 146 | 1.0 | 4.0 | 0.00 | 0.07 | 0.07 | 80 | 1018.1 |
| 20260507002019 | 82 | 146 | 1.0 | 4.0 | 0.00 | 0.07 | 0.07 | 80 | 1018.0 |
| 20260507001541 | 81 | 142 | 1.0 | 4.0 | 0.00 | 0.07 | 0.07 | 79 | 1018.0 |
| 20260507001015 | 81 | 127 | 2.0 | 7.0 | 0.00 | 0.07 | 0.07 | 79 | 1017.8 |
| 20260507000515 | 81 | 121 | 2.0 | 7.0 | 0.00 | 0.07 | 0.07 | 79 | 1017.8 |
| 20260507000034 | 81 | 127 | 2.0 | 5.0 | 0.00 | 0.07 | 0.07 | 79 | 1017.6 |
| 20260506235515 | 81 | 128 | 2.0 | 4.0 | 0.00 | 0.07 | 0.07 | 79 | 1017.6 |
| 20260506235015 | 81 | 129 | 2.0 | 4.0 | 0.00 | 0.07 | 0.07 | 79 | 1017.5 |
| 20260506234539 | 82 | 129 | 1.0 | 4.0 | 0.00 | 0.07 | 0.07 | 79 | 1017.5 |
| 20260506234016 | 81 | 0 | 1.0 | 3.0 | 0.00 | 0.07 | 0.07 | 79 | 1017.5 |
| 20260506233516 | 82 | 128 | 1.0 | 4.0 | 0.00 | 0.07 | 0.07 | 79 | 1017.4 |
| 20260506233036 | 82 | 128 | 1.0 | 4.0 | 0.00 | 0.07 | 0.07 | 79 | 1017.4 |
| 20260506232515 | 82 | 129 | 2.0 | 4.0 | 0.00 | 0.07 | 0.07 | 79 | 1017.4 |
| 20260506232015 | 82 | 0 | 0.0 | 4.0 | 0.00 | 0.07 | 0.07 | 78 | 1017.6 |
| 20260506231532 | 82 | 136 | 1.0 | 6.0 | 0.00 | 0.07 | 0.07 | 78 | 1017.3 |
| 20260506231015 | 82 | 123 | 2.0 | 6.0 | 0.00 | 0.07 | 0.07 | 78 | 1017.3 |
| 20260506230521 | 82 | 113 | 2.0 | 7.0 | 0.00 | 0.07 | 0.07 | 78 | 1017.1 |
| 20260506230040 | 82 | 124 | 2.0 | 7.0 | 0.00 | 0.07 | 0.07 | 78 | 1017.1 |
| 20260506225515 | 82 | 128 | 3.0 | 7.0 | 0.00 | 0.07 | 0.07 | 78 | 1016.8 |
| 20260506225015 | 82 | 128 | 3.0 | 8.0 | 0.00 | 0.07 | 0.07 | 79 | 1016.8 |
| 20260506224531 | 82 | 137 | 3.0 | 8.0 | 0.00 | 0.07 | 0.07 | 79 | 1016.8 |
| 20260506224015 | 82 | 141 | 3.0 | 8.0 | 0.00 | 0.07 | 0.07 | 79 | 1016.5 |
| 20260506223515 | 82 | 133 | 4.0 | 8.0 | 0.00 | 0.07 | 0.07 | 79 | 1016.5 |
| 20260506223036 | 82 | 138 | 3.0 | 6.0 | 0.00 | 0.07 | 0.07 | 79 | 1016.4 |
| 20260506222518 | 82 | 134 | 2.0 | 6.0 | 0.00 | 0.07 | 0.07 | 79 | 1016.4 |
| 20260506222015 | 82 | 139 | 3.0 | 7.0 | 0.00 | 0.07 | 0.07 | 79 | 1016.4 |
| 20260506221535 | 82 | 137 | 3.0 | 8.0 | 0.00 | 0.07 | 0.07 | 79 | 1016.5 |
| 20260506221015 | 82 | 114 | 2.0 | 8.0 | 0.00 | 0.07 | 0.07 | 79 | 1016.3 |
| 20260506220515 | 82 | 110 | 4.0 | 8.0 | 0.00 | 0.07 | 0.07 | 79 | 1016.3 |
| 20260506220038 | 82 | 126 | 3.0 | 9.0 | 0.00 | 0.07 | 0.07 | 79 | 1016.4 |
| 20260506215517 | 82 | 146 | 4.0 | 9.0 | 0.00 | 0.07 | 0.07 | 78 | 1016.5 |
| 20260506215017 | 83 | 127 | 5.0 | 10.0 | 0.00 | 0.07 | 0.07 | 78 | 1016.4 |
| 20260506214534 | 83 | 113 | 4.0 | 10.0 | 0.00 | 0.07 | 0.07 | 78 | 1016.4 |
| 20260506214017 | 83 | 131 | 6.0 | 10.0 | 0.00 | 0.07 | 0.07 | 78 | 1016.4 |
| 20260506213517 | 83 | 125 | 5.0 | 10.0 | 0.00 | 0.07 | 0.07 | 78 | 1016.3 |
| 20260506213034 | 83 | 111 | 6.0 | 10.0 | 0.00 | 0.07 | 0.07 | 77 | 1016.2 |
| 20260506212515 | 83 | 139 | 5.0 | 10.0 | 0.00 | 0.07 | 0.07 | 77 | 1016.2 |
| 20260506212016 | 83 | 149 | 5.0 | 10.0 | 0.00 | 0.07 | 0.07 | 76 | 1016.2 |
| 20260506211534 | 84 | 111 | 4.0 | 9.0 | 0.00 | 0.07 | 0.07 | 76 | 1016.2 |
| 20260506211015 | 84 | 158 | 4.0 | 10.0 | 0.00 | 0.07 | 0.07 | 75 | 1016.2 |